Regional Weather Roundup
Issued by NWS

Home | Current Version | Previous Version | Text Only | Print | Product List | Glossary Off
Versions: 1 2 3 4 5 6 7 8 9 10 11 12 13 14 15 16 17 18 19 20 21 22 23 24 25 26 27 28 29 30 31 32 33 34 35 36 37 38 39 40 41 42 43 44 45 46 47 48 49 50

000
ASUS43 KIND 172109
RWRIN

WEATHER ROUNDUP FOR INDIANA
NATIONAL WEATHER SERVICE INDIANAPOLIS IN
400 PM EST WED DEC 17 2014

NOTE: "FAIR" INDICATES FEW OR NO CLOUDS BELOW 12,000 FEET WITH NO
SIGNIFICANT WEATHER AND/OR OBSTRUCTIONS TO VISIBILITY.

* - STATION DOES NOT REPORT WEATHER SUCH AS PRECIPITATION OR FOG.

+ - STATION NOT QUALITY CONTROLLED BY THE NATIONAL WEATHER SERVICE.
    USE DATA WITH CAUTION...ESPECIALLY DEWPOINT AND RELATIVE
    HUMIDITY OBSERVATIONS.

INZ001>003-010>013-019-020-172200-
NORTHWEST INDIANA

CITY           SKY/WX    TMP DP  RH WIND       PRES   REMARKS
GARY /AIRPORT/ CLOUDY    28  19  69 W14       30.22  WCI  17
KNOX *+        CLOUDY    27  20  73 W12       30.20S WCI  17
LA PORTE +     CLOUDY    28  22  79 W8        30.20R WCI  20
MICHIGAN CITY+ CLOUDY    28  19  69 W10       30.21R WCI  19
MONTICELLO +   CLOUDY    25  21  83 W12       30.22S WCI  14
RENSSELAER +   CLOUDY    28  25  86 W10       30.23R WCI  19
VALPARAISO     CLOUDY    26  18  71 W10       30.21R WCI  16

$$

LMZ046-743>745-172200-
SOUTHERN LAKE MICHIGAN

STATION/POSITION TIME  TEMP WIND        PRES
                       AIR  DIR/SP/G
                 (UTC) (F)  (DEG/KT/KT) (MB)

$$

INZ004-005-014>016-021>024-172200-
NORTH CENTRAL INDIANA

CITY           SKY/WX    TMP DP  RH WIND       PRES   REMARKS
GOSHEN         CLOUDY    27  21  78 W10       30.17R WCI  17
LOGANSPORT +   CLOUDY    27  21  80 W10G16    30.23R WCI  17
PERU/GRISSOM   CLOUDY    25  24  99 W13       30.21R WCI  13
ROCHESTER +    CLOUDY    28  23  80 W9        30.21R WCI  20
SOUTH BEND     CLOUDY    28  20  71 W14       30.18S WCI  17
WARSAW +       FLURRIES  27  21  80 W10       30.19R WCI  17

$$

INZ006>009-017-018-025>027-172200-
NORTHEAST INDIANA

CITY           SKY/WX    TMP DP  RH WIND       PRES   REMARKS
ANGOLA *+      CLOUDY    27  21  80 W9        30.12S WCI  17
AUBURN +       CLOUDY    28  23  80 W15       30.16S WCI  17
FORT WAYNE     FLURRIES  26  21  81 W15       30.18S WCI  14
HUNTINGTON +   CLOUDY    25  20  82 W10G17    30.19S WCI  15

$$

INZ028-029-035-036-043>045-051>053-172200-
WEST CENTRAL INDIANA

CITY           SKY/WX    TMP DP  RH WIND       PRES   REMARKS
CRAWFORDSVL +  CLOUDY    23  18  80 NW8       30.25  WCI  14
GREENCASTLE +  CLOUDY    25  19  80 W5        30.25S WCI  19
LAFAYETTE      CLOUDY    24  20  84 NW10      30.25R WCI  14
TERRE HAUTE    CLOUDY    26  20  77 W9        30.28R WCI  17

$$

INZ030>032-037>040-046>048-054>057-064-065-172200-
CENTRAL INDIANA

CITY           SKY/WX    TMP DP  RH WIND       PRES   REMARKS
ANDERSON       CLOUDY    25  23  93 W17G23    30.22R WCI  11
CP ATTERBURY + CLOUDY    30  25  80 MISG      30.25R
COLUMBUS       CLOUDY    28  25  86 W8        30.25R WCI  20
FRANKFORT +    CLOUDY    25  25 100 W13       30.24S WCI  13
INDIANAPOLIS   CLOUDY    24  20  84 NW13      30.23R WCI  12
-EAGLE CREEK   LGT SNOW  24  21  88 NW9       30.23R FOG     WCI  14
KOKOMO *+      CLOUDY    25  19  80 W17       30.22R WCI  11
MARION +       CLOUDY    25  23  93 W13       30.21R WCI  13
MT COMFORT *+  CLOUDY    25  21  86 W13       30.24R WCI  13
SHELBYVILLE    CLOUDY    28  21  75 NW13      30.23R WCI  17
ZIONSVILLE +   CLOUDY    24  20  84 NW9G18    30.24R WCI  14

$$

INZ033-034-041-042-049-050-058-059-172200-
EAST CENTRAL INDIANA

CITY           SKY/WX    TMP DP  RH WIND       PRES   REMARKS
MUNCIE         CLOUDY    25  21  85 W14       30.20S WCI  13

$$

INZ060-061-067>069-081>083-085>088-172200-
SOUTHWEST INDIANA

CITY           SKY/WX    TMP DP  RH WIND       PRES   REMARKS
EVANSVILLE     CLOUDY    36  25  64 VRB3      30.29R
HUNTINGBURG *+ CLOUDY    34  23  64 NW7       30.28R WCI  28
WASHINGTON +   CLOUDY    31  23  70 NW6       30.28R WCI  26

$$

INZ062-063-066-070>080-084-089>092-172200-
SOUTH CENTRAL AND SOUTHEAST INDIANA

CITY           SKY/WX    TMP DP  RH WIND       PRES   REMARKS
BLOOMINGTON    CLOUDY    27  21  78 W7        30.25R WCI  19

$$




USA.gov is the U.S. government's official web portal to all federal, state and local government web resources and services.